Weather History for White Plains, NY

Change the Weather History Date:

Thursday, June 19, 2014

  Actual Average Record
Temperature  
Mean Temperature 70 °F -  
Max Temperature 75 °F 76 °F 91 °F (1993)
Min Temperature 64 °F 58 °F 50 °F (1980)
Cooling Degree Days 4    
Growing Degree Days 20 (Base 50)    
Moisture  
Dew Point 64 °F    
Average Humidity 84    
Maximum Humidity 94    
Minimum Humidity 69    
Precipitation  
Precipitation 0.27 in - - ()
Sea Level Pressure  
Sea Level Pressure 29.98 in    
Wind  
Wind Speed 5 mph (NW)    
Max Wind Speed 14 mph    
Max Gust Speed -    
Visibility 8 miles    
Events Rain    
Averages and records for this station are not official NWS values.
T = Trace of Precipitation, MM = Missing Value Source: NWS Daily Summary

Daily Weather History Graph

Daily Weather History Graph

Search for Another Location

Airport:

Trip Planner

Search our weather history database for the weather conditions in past years. The results will help you decide how hot, cold, wet, or windy it might be!

Date:

Astronomy

Jun. 19, 2014 Rise Set
Actual Time 5:22 AM EDT 8:30 PM EDT
Civil Twilight 4:48 AM EDT 9:03 PM EDT
Nautical Twilight 4:05 AM EDT 9:47 PM EDT
Astronomical Twilight 3:14 AM EDT 10:38 PM EDT
Moon 12:29 AM EDT (6/19) 12:53 PM EDT (6/19)
Length of Visible Light 16h 15m
Length of Day
15h 08m
Waning Gibbous, 51% of the Moon is Illuminated
Jun 19
Waning Gibbous
Jun 19
Last Quarter
Jun 27
New
Jul 5
First Quarter
Jul 12
Full

Hourly Weather History & Observations

Time (EDT) Temp. Dew Point Humidity Pressure Visibility Wind Dir Wind Speed Gust Speed Precip Events Conditions
12:56 AM 70.0 °F 61.0 °F 73% 29.94 in 10.0 mi NW 4.6 mph - N/A   Clear
1:56 AM 68.0 °F 62.1 °F 81% 29.96 in 10.0 mi Calm Calm - N/A   Clear
2:56 AM 66.9 °F 62.1 °F 84% 29.94 in 10.0 mi Calm Calm - N/A   Scattered Clouds
3:56 AM 69.1 °F 62.1 °F 78% 29.95 in 10.0 mi Calm Calm - N/A   Mostly Cloudy
4:56 AM 68.0 °F 62.1 °F 81% 29.95 in 10.0 mi NNE 9.2 mph - 0.01 in   Mostly Cloudy
5:56 AM 66.2 °F 62.6 °F 88% 29.97 in 10.0 mi North 8.1 mph - N/A   Overcast
6:56 AM 66.0 °F 62.1 °F 87% 29.98 in 6.0 mi North 6.9 mph - 0.02 in Rain Light Rain
7:56 AM 64.9 °F 62.1 °F 90% 29.99 in 5.0 mi North 13.8 mph - 0.01 in Rain Light Rain
8:05 AM 64.4 °F 62.6 °F 94% 30.01 in 3.0 mi North 12.7 mph - 0.01 in Rain Rain
8:28 AM 64.4 °F 62.6 °F 94% 30.01 in 1.2 mi NNW 9.2 mph - 0.04 in Rain Rain
8:43 AM 64.4 °F 62.6 °F 94% 30.01 in 2.5 mi North 10.4 mph - 0.06 in Rain Light Rain
8:56 AM 64.0 °F 62.1 °F 93% 30.00 in 2.0 mi NNW 8.1 mph - 0.07 in Rain Light Rain
9:17 AM 64.4 °F 62.6 °F 94% 30.01 in 5.0 mi NNW 3.5 mph - 0.02 in Rain Light Rain
9:56 AM 66.0 °F 62.1 °F 87% 29.99 in 10.0 mi North 5.8 mph - 0.05 in   Overcast
10:56 AM 70.0 °F 64.0 °F 81% 29.99 in 10.0 mi NNW 11.5 mph - 0.04 in   Mostly Cloudy
11:56 AM 70.0 °F 64.0 °F 81% 30.01 in 10.0 mi NW 8.1 mph - 0.02 in   Mostly Cloudy
12:56 PM 70.0 °F 64.9 °F 84% 29.99 in 6.0 mi NW 3.5 mph - 0.02 in Rain Light Rain
1:56 PM 70.0 °F 66.0 °F 87% 29.97 in 10.0 mi SW 3.5 mph - 0.01 in   Mostly Cloudy
2:56 PM 71.1 °F 64.9 °F 81% 29.97 in 10.0 mi West 4.6 mph - 0.01 in   Mostly Cloudy
3:27 PM 71.6 °F 66.2 °F 83% 29.99 in 10.0 mi West 8.1 mph - 0.01 in   Mostly Cloudy
3:56 PM 72.0 °F 64.9 °F 78% 29.98 in 10.0 mi West 5.8 mph - 0.01 in   Partly Cloudy
4:56 PM 73.9 °F 66.0 °F 76% 29.96 in 10.0 mi West 6.9 mph - N/A   Scattered Clouds
5:56 PM 75.0 °F 64.9 °F 71% 29.95 in 10.0 mi Variable 5.8 mph - N/A   Scattered Clouds
6:56 PM 75.0 °F 64.0 °F 69% 29.94 in 10.0 mi West 4.6 mph - N/A   Scattered Clouds
7:56 PM 71.1 °F 66.0 °F 84% 29.96 in 10.0 mi Calm Calm - N/A   Scattered Clouds
8:56 PM 69.1 °F 64.9 °F 87% 29.97 in 9.0 mi Calm Calm - N/A   Clear
9:56 PM 68.0 °F 64.9 °F 90% 29.98 in 10.0 mi NW 3.5 mph - N/A   Clear
10:56 PM 66.9 °F 64.0 °F 90% 29.97 in 8.0 mi WNW 3.5 mph - N/A   Clear
11:56 PM 66.9 °F 63.0 °F 87% 29.98 in 10.0 mi North 6.9 mph - N/A   Clear